Wind_Speed
25 26 27 27 28 28 28 28 27 27 27 27 27 27 27 27 27 28 28 28 29 29 30 30 30 30 30 31 31 31 31 31 30 30 31 31 31 31 31 31 31 30 30
25 25 25 26 27 27 27 28 28 28 28 27 26 26 26 26 26 27 28 29 30 30 30 31 31 31 31 31 31 31 31 31 31 31 31 31 31 31 31 30 30 31 30
25 26 26 26 26 26 27 27 27 27 28 28 27 26 26 26 26 27 27 28 29 30 30 31 31 32 32 32 31 32 32 32 31 31 31 31 31 31 31 31 30 30 30
25 26 25 25 25 25 25 26 26 27 27 27 27 27 26 26 27 27 28 28 29 30 30 31 31 31 32 33 33 33 32 32 32 31 30 30 30 30 30 30 30 30 28
24 24 24 24 25 24 24 24 24 24 25 25 25 25 26 26 26 27 28 28 28 29 29 30 29 30 31 32 32 32 32 32 31 31 30 30 30 30 29 28 28 28 27
22 22 23 23 23 23 23 22 22 23 23 23 23 24 25 25 26 26 27 27 27 27 27 28 29 29 29 29 30 31 31 31 31 31 30 30 29 29 27 27 26 26 26
20 21 20 21 20 20 21 21 21 22 22 23 23 23 24 24 25 25 25 25 25 25 26 26 27 27 27 28 28 29 29 29 30 29 29 29 28 27 26 25 25 24 24
18 18 18 19 19 19 19 20 20 21 21 21 21 21 22 22 22 23 23 23 23 24 24 25 26 26 26 27 26 27 27 27 27 27 27 27 27 26 25 24 23 23 23
16 16 16 17 17 17 17 17 18 18 19 19 19 19 20 20 20 21 21 21 21 22 23 23 24 24 24 24 25 25 25 25 25 25 25 25 25 24 23 23 22 21 20
13 14 14 14 14 15 15 15 16 16 17 17 17 18 18 18 19 18 18 18 19 19 20 20 20 21 21 21 21 22 22 22 23 23 22 22 22 21 21 20 20 19 18
12 12 12 12 12 12 13 13 14 14 14 15 15 15 16 16 16 16 16 17 16 16 16 16 16 16 17 17 18 18 18 19 19 20 20 20 20 20 19 18 17 16 16
11 11 11 11 11 11 11 11 12 12 12 12 12 13 13 13 13 13 14 14 14 14 13 13 13 13 13 13 14 14 14 15 15 16 16 17 17 17 17 16 16 16 15
11 10 10 10 10 10 11 11 11 11 10 10 10 9 9 10 10 11 11 11 11 11 11 10 10 10 9 9 10 11 11 11 12 13 14 14 15 16 16 15 15 14 14
11 11 10 10 10 11 11 11 10 9 9 9 8 8 7 7 7 8 8 8 8 8 7 6 6 6 6 7 8 8 9 10 11 11 12 13 14 14 15 15 14 14 13
12 11 11 10 10 10 10 10 10 9 10 9 8 7 7 7 7 7 6 6 5 4 3 2 2 3 3 4 5 6 7 8 8 9 11 11 12 13 13 13 13 12 11
12 12 11 11 10 10 10 10 10 10 10 9 9 8 8 8 7 7 7 6 5 4 3 1 0 1 1 2 2 4 5 5 7 8 9 9 10 11 12 12 11 10 10
12 12 12 11 11 11 11 11 11 10 10 9 9 8 8 8 8 8 7 6 5 5 3 2 2 1 1 1 1 2 3 4 5 7 7 7 8 10 10 10 9 9 9
14 13 13 12 11 11 11 11 11 11 10 9 9 8 8 8 8 8 7 6 5 5 4 3 3 2 2 2 2 2 3 3 4 5 6 7 8 8 9 10 9 9 8
15 15 14 13 12 11 11 10 11 11 10 10 9 9 8 8 8 9 8 7 6 5 5 4 3 3 3 2 2 2 2 3 4 5 5 6 6 7 8 8 8 8 8
16 15 15 14 12 11 11 11 10 10 10 9 9 9 9 9 9 9 9 7 6 5 4 4 4 3 2 2 2 2 2 2 3 4 5 5 6 6 7 7 8 8 8
15 15 15 15 13 12 10 10 10 10 9 9 9 9 9 9 9 8 8 7 7 6 4 4 3 3 3 3 1 1 1 2 3 4 5 5 6 6 6 7 7 7 8
16 15 15 15 14 13 12 11 10 9 9 8 8 8 9 9 9 8 8 7 7 6 5 4 3 3 3 3 2 1 1 2 3 4 5 5 6 6 7 7 8 9 9
16 16 15 15 14 14 13 12 11 10 9 9 8 8 8 9 8 8 7 7 6 5 5 4 3 3 2 2 2 3 3 4 4 5 6 7 7 8 9 9 10 10 11
16 16 15 15 14 13 13 13 12 11 10 10 9 9 9 8 8 8 8 7 7 6 6 5 4 4 4 4 5 5 5 6 6 7 8 9 10 11 11 11 12 13 14
17 16 16 15 14 14 13 13 12 12 12 11 11 10 9 9 8 9 8 8 8 8 8 8 7 7 7 7 8 8 9 9 9 10 11 12 12 13 14 14 15 16 17
16 16 16 15 15 14 14 13 13 12 12 12 12 12 11 10 10 10 10 10 10 10 10 10 10 10 10 11 11 11 11 12 12 13 14 14 15 16 17 17 18 19 20
Wind_Direction
282 282 281 281 279 279 280 278 278 277 276 274 274 272 270 269 265 265 265 265 263 261 259 259 258 257 257 256 256 256 255 254 255 257 259 261 262 262 261 262 263 263 264
282 282 282 281 280 280 279 277 276 276 275 274 274 273 271 271 268 265 264 264 263 261 260 259 259 258 256 256 256 256 256 256 255 255 257 259 261 262 262 262 263 264 265
282 283 284 283 282 281 279 277 276 276 274 274 274 273 272 271 270 268 266 265 263 262 260 260 260 258 257 257 256 256 256 256 256 256 258 259 260 261 262 263 264 265 265
285 286 287 286 283 282 281 279 278 277 276 274 274 274 273 273 272 271 269 267 265 264 263 263 262 259 258 257 257 257 257 257 256 257 258 259 259 260 261 262 262 262 264
289 288 288 287 285 283 281 280 280 278 277 276 274 274 273 272 272 271 271 270 268 266 265 264 263 261 261 260 259 258 257 257 257 257 257 257 259 261 261 261 261 260 261
291 290 289 289 287 284 284 282 281 281 280 280 278 276 276 275 274 274 273 270 269 268 267 267 265 263 262 261 260 259 258 258 258 258 257 258 258 258 259 259 261 261 259
295 295 293 292 291 289 286 284 281 281 280 281 280 278 278 277 277 275 273 271 271 270 269 268 268 266 265 264 262 259 259 259 258 258 257 256 255 256 257 257 257 257 255
299 297 296 295 295 294 290 287 284 282 281 280 281 281 280 280 278 276 275 274 274 272 271 269 268 267 266 264 262 259 258 257 256 255 255 254 252 253 254 254 254 253 254
302 300 300 299 298 298 293 290 288 286 285 283 281 282 282 281 280 278 277 277 276 275 273 272 269 267 266 262 260 258 256 254 253 253 253 252 250 250 250 251 251 251 251
310 307 307 308 307 305 304 302 299 294 290 289 287 285 284 282 281 279 279 280 280 277 275 273 270 267 264 261 259 256 254 254 252 251 251 250 248 246 246 247 248 247 250
321 316 315 316 315 314 311 309 307 303 299 295 292 290 288 285 284 283 284 285 285 282 279 275 272 267 262 259 256 254 253 252 251 249 246 245 242 239 240 242 242 244 248
330 328 326 328 328 323 320 317 316 315 312 308 304 300 297 292 289 288 289 289 289 285 279 276 272 268 263 258 254 250 247 247 245 242 240 238 236 234 234 235 238 242 244
344 341 338 338 337 334 332 331 329 326 323 321 320 318 314 308 304 300 298 297 294 289 282 274 268 264 254 249 248 245 239 235 233 232 231 231 231 230 230 230 233 238 242
354 354 353 349 348 347 344 341 342 345 345 344 343 340 338 335 329 323 315 307 303 298 289 275 262 251 242 239 238 237 234 229 228 227 225 225 226 225 226 228 232 236 239
0 360 2 2 357 356 354 352 354 357 359 0 2 3 4 2 360 357 350 339 329 323 312 280 245 231 234 228 230 230 225 219 219 220 220 220 223 223 223 224 225 227 229
4 5 5 6 6 3 1 3 6 7 6 7 8 11 10 9 11 13 16 15 13 17 20 29 246 232 217 211 219 220 217 214 212 212 211 215 218 217 217 217 217 219 222
11 9 8 10 11 13 13 12 13 12 13 17 19 19 17 15 16 15 18 23 30 35 43 62 64 69 98 145 192 193 191 197 204 199 199 202 204 205 207 209 215 217 222
16 16 15 14 14 14 15 19 22 23 22 22 22 22 22 21 23 25 26 28 34 37 42 50 59 61 71 76 99 144 158 158 173 184 189 191 194 202 207 212 216 218 223
16 17 17 16 17 18 18 19 21 22 25 26 27 27 25 21 21 23 25 29 34 36 37 47 64 66 70 79 95 126 151 165 175 183 183 180 183 191 199 206 214 221 231
15 16 16 15 15 16 18 19 18 18 19 19 23 27 28 26 25 26 28 30 32 33 39 48 58 58 56 71 91 114 136 160 182 188 186 186 189 196 205 212 220 231 241
16 17 17 17 17 17 17 15 14 14 15 17 19 22 23 21 21 23 27 28 28 32 37 40 42 38 40 44 79 134 157 173 185 198 198 201 205 211 217 222 230 242 252
15 16 18 21 22 22 20 18 16 13 12 11 10 12 14 15 17 18 21 20 22 23 24 25 21 22 30 39 31 5 244 227 225 224 224 225 226 226 230 239 246 254 263
17 18 19 19 20 21 21 20 17 16 14 11 9 8 8 6 6 5 5 5 8 9 10 11 8 359 345 332 309 291 279 265 255 245 246 246 246 249 253 258 261 264 269
14 15 16 17 17 17 16 15 14 12 11 7 4 360 357 357 356 355 352 347 343 340 337 334 326 317 313 305 297 292 284 274 267 263 261 259 259 260 262 265 267 270 273
12 13 13 13 13 14 12 10 9 8 6 2 356 351 348 347 346 344 340 335 330 326 322 318 312 302 296 294 292 288 282 278 277 273 269 268 266 267 269 272 274 276 278
7 7 7 7 9 8 7 4 2 359 357 353 349 345 340 337 335 333 332 329 326 323 319 313 307 303 296 291 289 287 284 281 279 275 274 273 272 272 274 276 277 279 281
Height
5779 5777 5776 5774 5772 5771 5769 5768 5766 5765 5764 5763 5762 5761 5761 5760 5760 5760 5760 5760 5761 5762 5762 5763 5764 5765 5766 5768 5769 5771 5772 5774 5775 5776 5777 5778 5779 5779 5780 5781 5782 5783 5783
5772 5770 5768 5766 5765 5763 5761 5760 5758 5757 5756 5755 5755 5754 5753 5753 5753 5753 5753 5753 5753 5754 5754 5755 5756 5757 5758 5759 5761 5762 5764 5765 5767 5768 5769 5770 5771 5771 5772 5773 5774 5774 5775
5764 5762 5760 5759 5757 5755 5753 5752 5750 5749 5749 5748 5747 5746 5746 5745 5745 5745 5745 5745 5745 5746 5746 5746 5747 5748 5749 5751 5752 5753 5755 5757 5758 5760 5761 5762 5763 5764 5764 5765 5766 5767 5768
5757 5755 5753 5751 5749 5747 5746 5744 5743 5742 5741 5740 5739 5739 5738 5738 5738 5737 5737 5737 5737 5737 5738 5738 5738 5739 5740 5741 5743 5744 5746 5748 5750 5751 5753 5754 5755 5756 5757 5758 5758 5759 5760
5750 5748 5745 5744 5742 5740 5739 5737 5736 5735 5734 5733 5732 5731 5731 5731 5730 5730 5729 5729 5729 5729 5729 5730 5730 5730 5731 5732 5734 5736 5737 5739 5741 5743 5745 5746 5747 5748 5749 5750 5751 5752 5753
5743 5741 5739 5737 5735 5733 5732 5730 5729 5728 5727 5726 5725 5725 5724 5723 5723 5722 5722 5722 5721 5721 5721 5721 5722 5722 5723 5724 5725 5727 5729 5731 5732 5734 5736 5738 5739 5741 5742 5743 5744 5745 5747
5737 5735 5733 5731 5729 5727 5726 5724 5723 5722 5721 5720 5719 5718 5717 5717 5716 5715 5715 5714 5714 5714 5713 5714 5714 5714 5715 5716 5717 5718 5720 5722 5724 5726 5728 5730 5732 5733 5735 5736 5738 5739 5740
5732 5730 5728 5726 5724 5722 5720 5719 5718 5716 5715 5714 5713 5712 5711 5710 5709 5709 5708 5708 5707 5706 5706 5706 5706 5707 5707 5708 5709 5711 5712 5714 5716 5718 5720 5722 5724 5726 5728 5730 5731 5732 5734
5728 5726 5724 5722 5720 5717 5716 5714 5713 5711 5710 5708 5707 5706 5705 5704 5704 5703 5702 5701 5701 5700 5699 5699 5699 5700 5700 5701 5702 5703 5705 5706 5708 5710 5713 5715 5717 5719 5721 5723 5725 5727 5729
5725 5722 5720 5718 5716 5714 5712 5710 5708 5707 5705 5704 5702 5701 5700 5699 5698 5697 5697 5696 5695 5694 5693 5693 5693 5693 5693 5694 5695 5696 5698 5700 5702 5704 5706 5709 5711 5714 5716 5718 5720 5722 5724
5722 5720 5717 5715 5713 5711 5709 5707 5705 5703 5701 5700 5698 5697 5696 5695 5693 5693 5692 5691 5690 5689 5688 5688 5687 5687 5688 5688 5689 5691 5692 5694 5696 5698 5701 5703 5706 5709 5711 5714 5716 5718 5720
5720 5717 5715 5713 5711 5708 5706 5704 5702 5700 5698 5697 5695 5694 5692 5691 5690 5689 5688 5687 5685 5684 5684 5683 5683 5683 5683 5684 5685 5686 5688 5690 5692 5694 5696 5699 5702 5705 5707 5710 5712 5714 5716
5718 5716 5713 5711 5709 5707 5705 5703 5700 5698 5696 5695 5693 5691 5690 5689 5687 5686 5685 5683 5682 5681 5680 5680 5680 5680 5680 5681 5682 5683 5685 5686 5688 5690 5693 5695 5698 5701 5703 5706 5708 5710 5712
5718 5715 5712 5710 5708 5706 5704 5701 5699 5697 5695 5693 5692 5690 5689 5688 5686 5684 5683 5681 5680 5679 5678 5678 5678 5678 5679 5679 5680 5681 5682 5684 5686 5688 5690 5693 5695 5698 5700 5703 5705 5707 5709
5717 5715 5712 5710 5708 5706 5703 5701 5699 5697 5695 5693 5692 5690 5689 5688 5686 5684 5682 5681 5680 5679 5678 5677 5677 5678 5678 5678 5679 5680 5681 5682 5684 5686 5688 5690 5693 5695 5697 5700 5702 5704 5706
5718 5715 5713 5710 5708 5706 5703 5701 5699 5697 5696 5694 5692 5691 5689 5688 5686 5685 5683 5682 5680 5679 5678 5678 5678 5678 5678 5678 5679 5679 5680 5682 5683 5685 5686 5688 5690 5693 5695 5698 5700 5702 5704
5718 5716 5713 5711 5708 5706 5704 5702 5700 5698 5696 5695 5693 5691 5690 5689 5687 5686 5684 5683 5681 5680 5679 5679 5679 5679 5679 5679 5679 5679 5680 5681 5682 5684 5685 5687 5689 5691 5694 5696 5698 5700 5702
5719 5716 5714 5711 5709 5707 5705 5703 5701 5699 5697 5696 5694 5693 5691 5690 5689 5687 5685 5684 5683 5682 5681 5681 5680 5680 5680 5680 5680 5680 5681 5681 5682 5684 5685 5687 5688 5690 5693 5695 5697 5698 5700
5720 5717 5715 5712 5710 5707 5706 5704 5702 5701 5699 5697 5696 5694 5693 5691 5690 5688 5687 5686 5684 5684 5683 5682 5682 5681 5681 5681 5681 5681 5682 5682 5683 5684 5685 5687 5688 5690 5691 5693 5695 5697 5698
5722 5719 5716 5713 5711 5709 5707 5705 5704 5702 5701 5699 5698 5696 5695 5693 5692 5690 5689 5687 5686 5685 5685 5684 5683 5683 5683 5682 5682 5682 5683 5683 5684 5684 5685 5687 5688 5689 5691 5692 5693 5695 5696
5723 5720 5717 5715 5712 5710 5708 5707 5705 5703 5702 5701 5699 5698 5696 5695 5693 5692 5690 5689 5688 5687 5686 5685 5685 5684 5684 5683 5683 5683 5684 5684 5684 5685 5685 5686 5687 5688 5689 5690 5692 5692 5693
5725 5722 5719 5716 5714 5712 5710 5708 5706 5704 5703 5701 5700 5699 5698 5696 5694 5693 5692 5690 5689 5688 5687 5686 5686 5685 5685 5684 5684 5684 5684 5684 5684 5685 5685 5686 5686 5687 5688 5689 5689 5689 5690
5727 5724 5721 5718 5716 5714 5711 5709 5708 5706 5704 5702 5701 5700 5698 5697 5696 5694 5693 5691 5690 5689 5688 5687 5686 5686 5685 5685 5684 5684 5684 5684 5684 5684 5684 5684 5685 5685 5686 5686 5686 5686 5686
5728 5725 5723 5720 5717 5715 5713 5711 5709 5707 5705 5703 5702 5700 5699 5697 5696 5695 5693 5692 5691 5689 5688 5687 5686 5686 5685 5684 5684 5683 5683 5682 5682 5682 5682 5682 5682 5682 5682 5682 5682 5682 5681
5730 5727 5724 5721 5719 5716 5714 5712 5710 5708 5706 5704 5702 5701 5699 5697 5696 5694 5693 5692 5690 5689 5688 5687 5686 5685 5684 5683 5682 5682 5681 5680 5680 5679 5679 5679 5679 5678 5678 5678 5677 5677 5676
5731 5728 5725 5723 5720 5717 5715 5713 5711 5709 5707 5705 5703 5701 5699 5697 5695 5694 5692 5691 5689 5688 5687 5685 5684 5683 5682 5681 5680 5679 5678 5677 5677 5676 5675 5675 5674 5674 5673 5672 5671 5671 5670